Torna al catalogo

COSMOS 2545

GLONASS

AttivoNavigazioneMEO
NORAD 45358·PAYLOAD·🇷🇺 Russia

Lanciato Mar 16, 2020 da Plesetsk Cosmodrome

Loading…

Prossimi Passaggi (prossime 24 ore)

TLE

AggiornatoSource: CelesTrak SupGP

Epoca: Sep 13, 2026, 23:59 UTC

1 45358C 20018A   26256.99979167  .00000000  00000+0  00000+0 0  2568
2 45358  64.2965 309.2932 0011985 237.0244 188.4344  2.13102766    14

Traccia COSMOS 2545 in tempo reale con AllMySat

Download on the App Store